Flag for Germany Weather past 2 weeks in Rendsburg, Schleswig-Holstein, Germany

Now
46 °F

Cool.


Feels Like: 44 °F
Forecast: 53 / 71 °F
Wind: 5 mph from South

Location: Hohn

Current Time: Aug 1, 2015 at 2:09:43 AM

Latest Report: Aug 1, 2015 at 1:20 AM


Visibility: 5 mi

Pressure: 30.09 "Hg

Humidity: 93%

Dew point: 45 °F

Location of RendsburgLocation

Historic Weather in Rendsburg — Graph

°F

Rendsburg temperature yesterday

Maximum temperature yesterday: 63 °F (at 4:20 PM)
Minimum temperature yesterday: 46 °F (at 11:20 PM)
Average temperature yesterday: 56 °F

Past Weeks' High & Low Weather Summary

 TemperatureHumidityPressure
High79 °F (Jul 17, 5:20 PM)100% (Jul 21, 4:20 AM)30.07 "Hg (Jul 21, 4:20 AM)
Low46 °F (Jul 24, 3:20 AM)43% (Jul 18, 5:20 PM)29.39 "Hg (Jul 28, 4:20 AM)
Average60 °F81%29.77 "Hg
* Reported Jul 17 12:20 AM — Aug 1 12:20 AM, Rendsburg, Weather by CustomWeather, © 2015

Note: Actual official high and low records may vary slightly from our data, if they occured in-between our weather recording intervals... More about our weather records

Advertising

Rendsburg weather history for previous 24 hours

 ConditionsComfort  
Time TempWeatherWind HumidityBarometerVisibility
12:20 AM
Sat, Aug 1
46 °FCool.2 mph93%30.07 "Hg5 mi
11:20 PM
Fri, Jul 31
46 °FCool.2 mph87%30.07 "Hg5 mi
10:20 PM48 °FCool.1 mph87%30.07 "Hg5 mi
9:20 PM54 °FCool.5 mph72%30.07 "Hg5 mi
8:20 PM57 °FCool.8 mph63%30.07 "HgN/A
7:20 PM57 °FCool.13 mph63%30.07 "HgN/A
6:20 PM61 °FRefreshingly cool.16 mph55%30.07 "HgN/A
5:20 PM61 °FRefreshingly cool.17 mph48%30.07 "HgN/A
4:20 PM63 °FPassing clouds.18 mph49%30.07 "HgN/A
3:20 PM61 °FScattered clouds.16 mph48%30.07 "HgN/A
2:20 PM61 °FScattered clouds.20 mph52%30.07 "HgN/A
1:20 PM57 °FPartly sunny.14 mph63%30.07 "HgN/A
12:20 PM61 °FPartly sunny.16 mph52%30.04 "HgN/A
11:20 AM57 °FPartly sunny.20 mph59%30.04 "HgN/A
10:20 AM57 °FPartly sunny.17 mph59%30.04 "HgN/A
9:20 AM55 °FPartly sunny.13 mph72%30.01 "HgN/A
8:20 AM54 °FPartly sunny.10 mph77%30.01 "HgN/A
7:20 AM54 °FPartly sunny.9 mph77%29.98 "HgN/A
6:20 AM54 °FPassing clouds.8 mph77%29.98 "HgN/A
5:20 AM54 °FPassing clouds.10 mph77%29.98 "HgN/A
4:56 AM54 °FPassing clouds.9 mph77%29.95 "HgN/A
4:20 AM54 °FCool.8 mph82%29.95 "Hg4 mi
3:20 AM54 °FCool.12 mph82%29.95 "Hg4 mi
2:20 AM54 °FCool.13 mph77%29.95 "Hg4 mi
Weather by CustomWeather, © 2015

See weather overviewHow to use our weather pages